Vorticity
4 4 5 6 5 4 5 4 2 5 6 4 5 5 4 5 6 5 4 5 5 5 5 5 5 5 5 5 6 6 6 6 5 6 7 6 7 7 6 5 5 7 7 9 13 13 12 12 12 11 11 12 17 20 18 14 9 6 5 5 4 3 2 1 1 3 5 6 5 5 4 5 6 6 5 5 5 5 5 5 4 5 6 8 8
4 4 4 5 6 5 5 5 5 6 5 4 5 5 4 5 5 4 4 4 5 4 4 4 5 4 5 5 5 5 6 6 5 6 8 7 7 7 7 7 6 4 5 7 9 11 12 11 10 9 10 11 11 13 15 17 16 13 11 9 8 6 6 4 3 3 2 3 6 6 5 4 5 6 6 5 5 5 5 5 4 4 5 6 7
5 4 3 4 5 5 5 4 5 6 3 3 4 4 5 5 5 5 5 4 4 4 4 4 5 4 4 5 5 4 5 6 6 6 8 8 8 8 7 8 8 5 4 6 6 7 9 10 9 7 8 10 10 10 10 12 13 14 14 14 14 14 13 9 7 6 4 3 3 5 5 5 5 5 6 5 4 4 4 4 4 4 4 5 6
6 3 2 4 4 5 6 4 3 5 4 3 3 4 5 4 4 5 5 6 6 5 4 4 5 5 4 4 5 5 4 6 6 6 8 8 8 9 8 7 8 8 6 6 4 3 4 6 7 6 6 7 9 10 10 11 11 11 12 12 13 16 19 17 12 8 5 5 4 4 5 5 5 4 5 6 5 4 4 4 4 4 4 4 5
7 5 4 6 6 5 5 4 3 5 5 5 3 3 4 4 4 4 5 7 7 7 7 5 5 5 4 4 5 5 5 5 6 6 7 7 8 9 9 8 7 8 7 7 6 4 4 3 4 4 5 6 7 8 9 10 12 13 14 14 13 13 16 20 20 15 8 4 3 4 5 5 5 5 5 5 5 5 4 4 4 4 3 3 5
7 7 6 6 5 5 5 4 4 4 5 4 3 2 3 3 3 4 4 6 7 7 8 8 7 6 5 5 5 5 6 6 6 6 7 7 8 8 9 9 8 8 7 6 7 6 6 5 3 2 2 3 5 7 7 6 8 11 14 15 16 16 15 15 17 20 18 13 7 4 4 5 6 5 5 5 5 5 4 4 4 4 4 3 3
7 7 6 6 5 5 5 4 4 3 4 3 2 3 3 2 2 3 4 5 6 7 9 9 8 7 6 6 7 7 6 7 6 6 7 7 7 8 8 8 8 9 8 7 6 6 6 6 6 5 3 3 4 6 6 6 7 8 9 11 13 16 17 16 13 13 16 19 18 14 9 5 4 6 6 4 5 5 4 4 4 4 4 4 3
6 5 5 5 4 3 2 3 3 3 4 4 3 3 3 3 3 3 3 4 5 6 8 9 9 8 6 7 8 8 7 7 7 6 7 7 8 8 7 8 8 8 8 8 8 7 7 7 7 6 6 5 5 5 7 10 9 7 7 7 8 10 13 17 17 13 10 11 14 17 16 10 4 3 5 6 4 5 5 4 4 4 4 4 4
5 4 5 4 3 2 3 3 3 2 4 5 4 3 3 4 4 4 4 4 5 5 6 7 8 8 6 7 8 8 7 7 7 6 6 6 7 8 7 7 7 7 7 6 7 7 8 7 7 7 7 7 6 5 7 9 8 6 7 7 7 7 8 12 16 17 15 10 8 10 15 17 13 5 1 5 6 4 5 4 4 4 4 4 4
6 5 5 4 4 3 3 2 2 1 3 4 4 4 4 4 5 5 5 5 5 5 6 6 7 7 6 7 7 7 8 8 8 7 7 7 7 8 9 8 8 7 6 6 6 6 7 7 7 8 7 8 8 7 7 7 7 6 7 8 7 6 6 7 10 14 17 15 12 8 9 15 22 18 6 2 5 5 5 4 4 4 4 4 4
6 6 5 3 3 1 1 1 1 1 1 3 3 3 3 3 4 5 6 6 6 6 6 6 6 7 7 6 7 7 7 8 8 7 8 8 8 8 8 9 9 9 7 6 6 6 6 7 7 7 7 7 8 8 7 7 7 6 7 7 7 7 6 5 6 8 13 16 16 13 9 8 15 23 19 10 3 2 4 4 3 4 5 4 3
4 4 2 1 1 1 1 2 3 4 4 5 6 6 5 5 5 5 6 6 6 6 7 6 6 7 6 6 6 7 7 8 7 6 8 9 8 8 8 9 10 10 9 8 7 7 6 7 7 6 6 7 7 7 7 7 7 6 7 7 6 7 6 6 5 5 7 11 14 16 15 12 10 14 19 19 13 4 2 4 5 3 3 5 4
2 1 -0 1 2 3 4 5 6 8 9 9 9 9 8 9 9 7 6 7 7 8 9 7 6 7 6 6 6 6 6 7 7 5 6 8 8 7 9 9 9 9 10 10 9 8 7 7 7 7 6 5 5 5 5 5 5 5 5 6 6 6 7 7 6 5 5 6 8 12 15 16 15 13 12 16 22 19 9 3 4 5 3 3 5
1 0 1 3 3 6 8 8 8 9 11 12 11 11 11 11 11 10 9 8 7 8 10 8 7 7 6 6 6 5 5 5 7 6 5 6 7 7 7 7 8 9 9 10 10 8 8 8 8 7 6 5 5 5 5 5 4 4 3 4 5 6 7 7 6 6 6 5 4 6 9 11 14 16 15 13 18 25 20 9 3 4 4 3 3
1 2 3 4 5 8 10 8 7 8 9 10 10 11 13 12 11 11 9 8 9 9 10 9 9 7 6 7 6 5 5 5 6 6 6 6 4 4 4 4 5 7 8 9 10 9 9 9 9 8 7 6 6 6 5 5 4 4 4 4 5 6 7 7 7 6 5 5 5 4 4 5 7 10 14 15 15 19 22 20 13 5 4 5 4
3 3 4 7 10 10 9 7 6 7 8 8 9 10 11 12 11 10 9 8 9 9 9 10 10 9 8 8 7 6 6 5 4 5 7 7 4 2 3 3 3 5 6 7 8 9 9 9 10 9 8 7 7 7 7 6 5 4 4 5 6 7 9 9 9 8 7 6 5 5 4 4 4 4 6 11 13 14 16 22 24 16 7 5 6
2 3 7 11 11 9 8 7 7 8 9 9 8 8 9 10 10 10 10 10 10 9 9 10 11 11 9 7 7 7 6 4 5 4 4 6 5 3 3 3 3 3 3 5 7 9 9 9 9 9 9 8 7 7 7 8 8 7 7 8 8 8 9 10 10 10 9 8 7 6 6 4 4 4 3 4 7 10 12 14 21 25 18 8 6
2 6 10 11 10 8 8 7 8 9 10 10 9 8 9 8 8 10 11 10 9 8 9 11 11 11 10 8 7 8 7 5 5 5 3 3 5 5 4 4 4 4 3 3 6 8 8 7 7 8 9 9 8 5 5 6 7 8 9 9 9 10 10 9 10 11 11 11 10 8 8 7 6 5 4 4 3 4 7 9 12 19 23 18 11
5 9 11 11 9 8 9 9 10 11 12 12 10 9 9 9 9 11 13 12 11 10 10 11 11 10 9 8 8 8 8 7 6 5 4 3 3 4 4 4 4 4 3 3 4 5 6 7 7 7 8 8 9 7 5 4 3 5 7 9 10 11 11 11 10 11 12 12 12 11 10 9 8 7 6 5 5 4 3 5 6 9 14 19 18
9 12 11 9 8 9 10 10 9 8 8 9 10 10 9 9 8 8 9 12 14 14 12 11 11 11 10 9 8 8 8 8 7 6 5 4 3 3 2 2 4 4 3 3 3 3 3 5 7 8 8 7 7 8 6 4 2 2 5 8 11 11 11 12 11 10 11 11 13 14 14 13 11 11 10 8 6 6 5 4 5 5 6 10 14
12 11 8 8 10 9 8 8 9 9 8 7 6 5 3 3 4 5 4 4 7 11 14 13 11 11 11 10 9 8 8 8 8 7 6 5 4 3 3 2 2 2 2 3 3 4 4 3 5 6 8 7 5 5 5 4 2 2 5 9 10 9 9 11 12 11 11 10 11 12 13 14 15 14 14 13 11 9 8 6 5 5 5 6 7
12 8 9 11 9 7 8 11 11 11 11 11 9 5 1 -1 1 6 6 3 4 8 12 14 11 10 10 11 10 9 7 7 7 8 7 6 5 4 4 3 3 1 1 2 2 4 6 5 5 6 7 7 6 5 5 3 2 2 4 8 9 8 6 8 10 10 10 9 9 9 9 10 12 13 14 15 16 14 13 11 9 7 6 5 4
9 8 10 9 7 8 9 4 2 7 10 11 14 13 8 3 4 11 13 9 10 12 15 18 16 11 9 9 10 10 9 8 7 7 7 6 6 5 5 4 4 3 3 3 2 3 5 6 7 6 7 8 8 6 4 2 3 4 4 4 7 6 5 6 7 7 7 6 6 6 7 7 7 8 10 11 13 15 16 16 15 14 12 9 7
8 10 10 6 7 7 3 -1 5 14 14 15 28 37 33 22 10 7 8 7 8 9 11 15 16 15 12 11 10 9 9 9 8 8 8 8 7 6 6 5 5 5 4 4 3 2 2 4 6 7 8 9 10 8 5 3 3 6 6 5 6 6 4 4 5 6 5 3 4 3 3 4 4 5 6 7 9 10 12 14 15 16 16 15 13
9 11 8 4 5 5 3 7 14 18 15 17 31 40 35 23 9 6 14 21 25 25 20 15 11 11 11 12 13 13 11 10 9 9 9 9 9 7 7 7 6 6 6 6 5 4 4 4 5 7 8 9 11 11 8 6 5 5 7 7 7 6 5 5 4 4 3 2 2 2 2 2 2 3 3 4 5 5 5 8 10 12 14 14 14
9 8 5 4 3 3 6 10 12 16 17 15 16 17 14 13 12 15 20 22 26 30 32 29 22 16 12 10 11 12 13 12 10 9 8 8 8 8 8 8 9 9 9 9 8 8 7 5 4 4 6 8 10 12 11 8 7 6 8 9 8 6 4 5 6 4 3 3 2 2 2 2 2 2 2 3 3 3 3 4 5 7 10 12 12
8 9 9 7 2 1 5 8 9 11 14 12 8 7 9 10 9 8 6 4 5 9 16 21 23 24 23 20 18 17 17 15 10 6 5 3 3 5 5 7 12 15 13 10 10 11 10 8 6 5 5 6 7 10 11 9 7 5 7 10 9 7 5 5 6 6 4 3 3 3 2 2 3 2 2 2 2 3 3 3 4 6 8 11 11
10 10 10 8 3 2 3 5 7 6 7 9 6 4 6 7 4 2 2 2 4 4 6 8 11 15 18 19 21 22 24 24 19 10 3 -1 -3 -3 -4 -0 9 16 17 13 10 11 12 11 9 7 6 7 8 10 11 10 8 6 6 9 10 8 6 6 7 8 7 6 5 4 4 3 3 3 3 4 3 2 2 2 3 4 6 9 11
2 -6 1 9 8 5 1 1 5 7 6 5 5 5 5 5 5 4 4 4 4 5 5 6 6 8 11 12 13 14 18 23 25 21 13 7 4 1 -1 2 9 15 17 15 9 8 10 11 10 8 6 5 6 7 9 10 8 7 6 8 11 9 6 6 7 8 8 8 8 7 5 5 4 4 4 4 2 1 1 2 3 4 6 8 10
-3 -12 1 11 9 7 5 3 4 5 3 1 2 5 4 5 6 5 5 5 5 6 5 4 4 5 6 9 12 13 12 14 17 19 18 15 13 12 11 11 14 17 20 19 13 8 8 10 9 9 7 7 6 5 7 7 7 7 7 7 9 8 5 4 6 8 7 7 9 9 8 6 4 4 2 1 -0 -2 -3 -2 0 2 4 7 10
5 0 7 9 9 10 10 6 3 2 1 -1 -1 2 3 5 5 5 6 5 4 6 6 5 5 5 4 4 8 12 13 13 15 18 19 18 18 18 19 19 20 21 21 19 16 12 10 9 8 6 4 5 5 4 4 5 4 5 6 8 10 10 8 5 4 5 4 2 2 5 6 6 5 2 -1 -2 -4 -6 -3 2 4 6 8 8 9
7 6 7 6 9 12 10 8 4 4 4 2 -0 1 3 5 6 6 7 7 6 6 6 7 6 6 6 5 4 8 11 13 13 15 16 17 20 19 17 19 25 31 28 20 16 14 13 13 11 9 8 8 9 5 3 3 2 3 4 7 11 12 11 9 8 7 5 2 1 2 4 4 3 -2 -5 -6 -6 -3 3 8 12 13 13 12 11
5 5 5 5 7 9 11 12 9 6 7 8 7 4 1 2 4 4 4 5 7 7 7 9 9 8 8 7 5 6 9 11 11 10 10 11 15 18 17 15 19 28 29 21 17 14 11 11 12 12 13 14 16 12 7 5 3 3 4 6 8 9 7 6 8 9 7 4 2 3 4 2 -0 -6 -9 -9 -6 -1 3 3 7 12 13 13 12
7 4 5 6 8 9 9 8 6 5 5 6 9 10 6 2 1 1 1 1 3 7 7 7 8 9 9 9 7 7 10 11 11 9 7 6 7 11 16 14 11 15 16 12 9 7 6 6 8 11 13 13 14 12 9 7 6 5 6 6 6 5 3 1 -1 0 3 4 3 3 3 0 -5 -9 -10 -9 -6 1 5 -2 -1 8 12 12 13
7 6 7 7 8 7 3 -0 -1 0 2 2 3 7 9 7 4 3 2 -0 -1 3 6 6 6 5 7 9 8 7 9 10 9 7 4 3 4 8 12 13 12 13 15 15 13 10 9 7 6 7 9 10 11 11 9 8 9 9 9 8 7 6 5 3 -2 -6 -7 -5 -4 -3 -3 -5 -9 -10 -9 -7 -2 8 11 2 -1 6 10 10 11
9 10 9 7 6 4 2 3 2 -1 -1 -1 -2 1 6 7 6 5 5 5 2 0 2 5 7 5 4 8 8 8 9 8 7 6 3 3 5 7 8 9 10 13 16 20 20 15 12 12 15 16 10 8 12 14 13 10 9 10 10 9 9 8 9 10 8 5 2 -2 -4 -5 -6 -6 -7 -8 -5 1 8 14 13 7 6 9 9 8 8
10 11 10 7 5 4 3 2 1 -1 -1 -0 0 4 8 7 4 3 5 9 7 4 3 4 7 9 6 4 6 8 9 8 6 5 5 6 6 6 8 8 10 12 13 16 19 19 14 10 14 17 10 4 6 9 11 11 10 8 8 10 13 13 11 11 11 10 10 7 5 1 -2 -3 -2 -0 5 9 11 11 13 13 13 12 10 10 9
6 8 9 8 4 1 2 4 2 3 4 3 3 5 7 7 6 4 3 6 7 6 6 6 8 11 10 5 5 9 10 7 5 4 4 6 7 7 9 9 10 12 11 11 15 19 19 14 11 11 8 5 4 4 5 6 5 4 6 12 20 20 18 18 16 14 13 14 15 14 12 12 14 16 17 11 4 6 13 15 13 11 11 12 11
0 2 4 5 4 1 4 9 9 6 5 4 2 2 3 5 7 8 6 4 5 6 7 7 8 12 13 8 5 9 11 7 4 4 5 5 6 7 8 9 10 11 11 10 11 13 17 19 17 13 11 10 7 4 3 3 4 8 12 17 22 22 21 21 20 20 21 21 22 24 25 22 17 13 11 8 6 9 12 12 12 12 12 12 12
0 3 4 5 5 3 4 7 6 3 3 3 1 -2 -0 5 6 6 6 5 5 8 9 10 13 15 15 11 8 10 12 7 3 5 6 6 6 7 8 8 8 9 8 8 11 13 12 14 18 17 15 13 12 12 15 16 16 17 18 18 20 18 13 11 12 15 16 14 14 14 11 5 -1 -0 5 9 10 10 10 10 11 10 11 12 12
1 3 6 7 5 3 5 6 5 4 3 2 2 3 6 9 8 4 3 3 6 9 10 14 18 18 14 11 11 13 12 6 4 6 6 6 7 7 7 8 8 8 8 8 9 11 11 11 13 13 11 11 14 16 18 17 13 11 10 9 7 5 3 3 4 6 9 9 5 -0 -4 -3 2 8 12 12 11 10 10 9 8 9 12 15 15
2 3 5 4 3 2 2 3 3 3 3 1 3 8 9 8 5 3 4 8 12 11 10 15 17 15 12 12 15 17 11 5 5 6 6 7 6 7 8 8 9 9 9 9 8 7 8 8 6 3 -0 0 3 4 4 3 2 3 4 3 2 3 5 6 5 6 12 15 11 6 5 11 15 15 13 12 12 13 14 15 15 16 18 18 16
0 2 2 1 1 1 1 2 1 1 2 3 3 4 6 6 3 2 5 11 17 15 13 16 16 14 15 16 18 16 10 5 5 5 8 8 4 7 11 9 8 9 8 6 5 3 2 3 2 1 0 1 3 5 4 4 8 11 11 10 10 10 10 13 12 12 15 17 17 15 14 16 16 14 14 16 17 19 21 21 22 21 19 16 14
-2 -0 3 1 -0 1 2 3 1 1 3 3 4 3 4 9 9 3 1 7 14 18 19 19 16 15 17 17 16 13 7 5 4 6 11 9 2 5 13 10 7 6 4 3 3 4 4 5 4 5 7 8 9 8 7 8 13 16 16 15 14 13 14 14 12 11 12 13 14 13 14 17 15 13 18 22 21 22 23 20 19 18 15 13 12
-3 -2 -1 -1 -1 -1 2 4 1 1 3 3 6 4 2 9 12 6 5 10 15 20 22 18 14 14 15 13 11 9 5 4 3 6 11 8 3 7 12 11 9 8 6 5 6 8 9 9 8 8 10 9 5 5 8 10 11 11 12 14 14 13 12 9 8 11 13 12 11 12 18 20 14 14 21 20 16 20 21 17 14 14 12 12 12
-1 -2 -0 8 3 -13 -11 1 1 -0 2 3 5 3 -1 5 13 13 12 14 17 19 17 14 12 13 12 10 8 6 5 5 4 6 9 7 8 11 11 10 11 11 10 8 7 8 7 6 6 6 7 7 5 7 10 10 11 11 11 12 11 9 7 8 13 16 15 14 14 15 19 19 12 13 19 16 15 22 21 13 12 13 13 13 14
-1 -0 5 20 12 -13 -15 0 4 5 6 1 -1 2 0 2 10 16 14 10 11 13 11 10 10 9 8 9 8 6 6 6 5 6 8 9 10 11 9 9 10 9 8 6 4 5 5 5 6 7 8 11 12 12 11 10 10 10 9 10 10 10 11 14 18 19 17 18 18 16 17 16 11 13 17 16 17 20 17 12 13 14 14 15 16
0 1 2 10 8 -5 -7 1 5 9 14 12 7 9 10 5 4 10 10 7 8 8 7 9 10 9 9 8 8 8 6 6 7 8 8 8 9 9 9 10 9 8 7 5 5 6 7 7 9 9 11 12 12 12 12 10 9 9 11 13 13 12 11 13 16 17 17 20 19 17 18 16 12 13 16 15 14 15 14 14 14 14 15 17 18
1 2 0 3 5 0 2 13 17 16 24 32 24 11 9 8 5 9 11 9 8 7 8 11 10 9 10 9 7 7 6 7 9 8 6 6 7 8 10 11 10 9 8 7 7 8 8 9 11 13 14 14 13 13 13 13 13 13 13 11 9 10 12 15 17 16 18 20 15 10 12 12 11 14 16 15 14 14 13 13 14 17 18 18 18
1 1 1 2 4 4 8 16 19 17 20 23 14 3 5 8 6 10 14 12 9 8 9 11 10 9 10 9 8 7 8 10 9 4 3 7 9 9 11 12 9 9 11 11 11 10 11 13 15 15 16 15 15 15 15 14 12 9 8 8 11 16 19 21 21 18 18 17 7 3 11 16 17 18 18 17 15 14 15 16 17 18 17 16 17
1 0 2 3 5 11 16 11 8 12 12 6 1 3 8 9 6 8 14 12 8 8 10 10 10 10 10 9 9 9 10 11 7 3 4 8 9 9 10 10 8 10 12 13 12 13 15 16 15 14 14 13 13 12 10 8 6 8 13 19 23 24 22 21 19 14 14 12 6 9 19 21 19 18 17 16 15 14 16 19 18 16 16 16 17
Height
5933 5933 5934 5933 5933 5934 5933 5933 5934 5934 5933 5933 5933 5933 5932 5932 5932 5932 5931 5931 5930 5930 5930 5930 5929 5929 5929 5929 5928 5928 5928 5928 5927 5927 5926 5925 5924 5924 5923 5922 5922 5921 5920 5920 5919 5919 5919 5918 5919 5919 5919 5918 5919 5919 5919 5920 5920 5921 5921 5922 5921 5922 5922 5922 5922 5922 5922 5922 5921 5921 5921 5921 5921 5922 5922 5922 5922 5922 5922 5922 5922 5922 5922 5923 5922
5934 5934 5934 5935 5935 5935 5935 5934 5935 5935 5934 5934 5934 5934 5934 5934 5934 5933 5932 5932 5931 5930 5930 5930 5929 5929 5929 5928 5928 5928 5928 5928 5927 5927 5926 5926 5925 5924 5923 5923 5922 5922 5921 5920 5920 5919 5919 5918 5918 5919 5919 5918 5918 5918 5918 5919 5919 5920 5920 5920 5920 5920 5921 5921 5921 5922 5921 5921 5921 5921 5921 5920 5920 5921 5921 5921 5922 5922 5921 5921 5921 5921 5921 5922 5922
5934 5935 5935 5935 5935 5936 5936 5936 5936 5935 5936 5936 5935 5936 5935 5935 5934 5934 5933 5932 5932 5931 5931 5931 5930 5929 5929 5928 5928 5928 5928 5928 5927 5927 5927 5926 5925 5924 5923 5923 5923 5922 5922 5921 5921 5920 5919 5919 5919 5919 5919 5919 5918 5918 5918 5918 5918 5919 5919 5919 5919 5919 5919 5919 5920 5920 5920 5920 5920 5920 5920 5920 5920 5920 5920 5921 5921 5921 5921 5921 5921 5920 5921 5921 5921
5936 5936 5937 5936 5936 5936 5937 5937 5937 5937 5937 5937 5936 5936 5936 5935 5935 5934 5934 5933 5932 5932 5931 5931 5930 5930 5929 5929 5929 5928 5928 5927 5927 5927 5926 5926 5925 5925 5924 5923 5923 5923 5922 5921 5921 5921 5920 5920 5919 5919 5918 5918 5918 5918 5918 5918 5918 5918 5917 5917 5917 5917 5917 5917 5917 5918 5918 5919 5919 5919 5920 5920 5920 5920 5920 5920 5920 5921 5921 5921 5920 5920 5920 5920 5921
5936 5937 5937 5937 5937 5937 5938 5938 5938 5938 5937 5937 5937 5937 5936 5936 5935 5935 5934 5934 5933 5933 5932 5931 5930 5930 5929 5929 5929 5928 5928 5927 5926 5926 5925 5925 5924 5924 5924 5923 5922 5922 5922 5922 5921 5921 5920 5920 5920 5919 5919 5918 5918 5918 5917 5917 5917 5917 5916 5916 5916 5916 5915 5915 5915 5916 5916 5917 5918 5918 5919 5919 5919 5919 5919 5920 5920 5920 5920 5921 5920 5920 5920 5920 5920
5936 5937 5938 5938 5938 5938 5938 5939 5938 5938 5938 5937 5937 5937 5936 5935 5935 5935 5934 5934 5934 5933 5932 5932 5930 5930 5929 5929 5929 5928 5928 5927 5926 5925 5925 5924 5924 5923 5923 5923 5922 5922 5922 5921 5921 5921 5920 5920 5919 5919 5919 5918 5918 5917 5916 5915 5915 5915 5915 5915 5915 5914 5914 5913 5914 5914 5915 5915 5916 5917 5917 5917 5918 5918 5919 5919 5919 5920 5920 5921 5921 5921 5920 5920 5920
5937 5938 5938 5939 5939 5939 5939 5939 5939 5938 5938 5937 5937 5936 5936 5935 5935 5934 5934 5934 5934 5933 5933 5932 5930 5930 5929 5928 5929 5928 5928 5927 5925 5925 5924 5923 5923 5923 5922 5922 5922 5922 5921 5921 5920 5920 5920 5919 5919 5919 5918 5918 5917 5916 5915 5914 5914 5915 5915 5914 5913 5913 5913 5912 5912 5912 5913 5913 5914 5914 5915 5915 5916 5916 5917 5918 5918 5919 5919 5920 5920 5920 5920 5920 5920
5938 5938 5939 5939 5939 5939 5939 5939 5939 5938 5937 5937 5936 5935 5935 5935 5934 5934 5933 5933 5933 5932 5932 5932 5930 5929 5928 5928 5928 5928 5927 5926 5925 5924 5924 5923 5923 5922 5922 5922 5921 5921 5921 5921 5920 5920 5919 5919 5918 5918 5918 5917 5916 5915 5914 5914 5914 5914 5914 5913 5912 5912 5912 5911 5910 5910 5911 5911 5911 5911 5912 5912 5913 5914 5915 5916 5917 5917 5918 5918 5919 5919 5919 5920 5920
5939 5939 5940 5940 5940 5939 5939 5939 5939 5938 5937 5936 5935 5935 5934 5934 5934 5932 5932 5932 5931 5931 5931 5930 5930 5929 5928 5927 5927 5927 5926 5926 5925 5924 5923 5923 5922 5922 5921 5921 5921 5921 5920 5920 5920 5920 5919 5918 5918 5917 5917 5917 5916 5914 5914 5914 5914 5913 5913 5912 5912 5912 5911 5910 5910 5909 5909 5909 5909 5910 5910 5911 5911 5912 5913 5914 5914 5915 5916 5916 5917 5917 5918 5918 5918
5940 5940 5940 5940 5940 5939 5939 5939 5938 5937 5937 5936 5935 5934 5934 5933 5932 5931 5931 5931 5930 5930 5929 5929 5928 5927 5926 5926 5926 5926 5925 5925 5924 5923 5923 5922 5921 5921 5921 5920 5920 5920 5919 5919 5919 5919 5919 5918 5918 5917 5917 5916 5916 5915 5914 5914 5913 5912 5912 5911 5911 5911 5910 5909 5909 5908 5908 5908 5908 5908 5908 5909 5909 5910 5910 5911 5912 5913 5913 5914 5915 5915 5916 5916 5917
5940 5940 5940 5940 5940 5940 5939 5938 5938 5937 5936 5935 5934 5934 5933 5932 5931 5931 5930 5930 5929 5929 5928 5927 5926 5926 5925 5925 5925 5925 5924 5924 5923 5923 5922 5921 5921 5920 5920 5919 5919 5919 5918 5918 5918 5918 5918 5918 5917 5917 5916 5916 5915 5914 5914 5913 5912 5911 5911 5910 5910 5909 5909 5908 5907 5907 5907 5906 5906 5906 5907 5907 5907 5908 5908 5909 5909 5910 5911 5912 5912 5913 5914 5915 5915
5940 5940 5941 5941 5940 5940 5939 5938 5937 5937 5936 5935 5934 5933 5932 5932 5931 5930 5929 5929 5928 5928 5927 5926 5925 5924 5924 5924 5923 5923 5923 5922 5922 5922 5921 5921 5920 5919 5919 5918 5918 5918 5917 5917 5917 5917 5917 5916 5916 5916 5916 5915 5914 5913 5913 5912 5912 5911 5910 5910 5909 5908 5908 5907 5906 5906 5905 5905 5905 5905 5905 5905 5906 5906 5906 5906 5907 5908 5908 5909 5910 5911 5912 5913 5914
5940 5941 5941 5941 5940 5939 5939 5938 5937 5936 5935 5934 5933 5932 5931 5931 5930 5929 5928 5928 5927 5927 5926 5924 5924 5923 5923 5923 5922 5922 5921 5921 5921 5920 5920 5920 5920 5919 5918 5918 5917 5916 5916 5915 5915 5915 5915 5915 5915 5915 5915 5914 5914 5912 5912 5911 5911 5910 5909 5909 5908 5907 5906 5905 5905 5905 5905 5904 5904 5904 5904 5904 5904 5904 5904 5904 5905 5905 5906 5906 5907 5908 5910 5911 5912
5940 5941 5941 5940 5940 5939 5938 5937 5936 5935 5935 5933 5932 5931 5931 5930 5929 5928 5927 5926 5926 5925 5924 5923 5922 5921 5921 5921 5921 5920 5920 5920 5920 5919 5918 5918 5918 5918 5917 5917 5916 5915 5915 5914 5914 5914 5914 5914 5914 5914 5913 5913 5913 5912 5911 5910 5909 5909 5908 5907 5907 5906 5905 5904 5904 5903 5903 5903 5903 5903 5903 5903 5902 5902 5903 5903 5903 5903 5904 5904 5905 5906 5907 5908 5909
5940 5940 5940 5939 5939 5938 5937 5936 5935 5935 5933 5932 5931 5931 5930 5929 5928 5927 5925 5925 5924 5923 5922 5921 5920 5919 5919 5919 5918 5918 5918 5918 5918 5918 5918 5916 5915 5915 5915 5915 5915 5914 5914 5913 5913 5913 5912 5912 5912 5912 5912 5911 5911 5910 5910 5909 5908 5907 5907 5906 5905 5905 5904 5903 5902 5902 5901 5901 5901 5901 5901 5901 5901 5901 5901 5901 5901 5901 5902 5902 5903 5904 5905 5906 5907
5940 5940 5939 5938 5938 5936 5936 5935 5934 5933 5932 5931 5930 5929 5928 5927 5926 5925 5924 5923 5922 5921 5920 5919 5918 5918 5917 5917 5916 5916 5916 5916 5916 5916 5916 5916 5914 5913 5913 5913 5913 5913 5912 5912 5912 5911 5911 5911 5911 5911 5910 5910 5909 5909 5908 5907 5906 5906 5905 5905 5904 5903 5903 5902 5901 5901 5900 5900 5899 5899 5899 5899 5899 5899 5899 5899 5899 5899 5900 5900 5901 5902 5902 5903 5904
5939 5939 5938 5937 5937 5936 5935 5934 5933 5932 5931 5930 5928 5927 5926 5925 5924 5923 5923 5921 5920 5919 5918 5917 5917 5916 5916 5915 5915 5914 5914 5914 5914 5914 5914 5914 5914 5912 5911 5911 5911 5911 5911 5910 5910 5910 5910 5910 5909 5909 5909 5908 5907 5907 5906 5905 5905 5905 5904 5903 5902 5901 5901 5900 5900 5899 5899 5898 5898 5897 5897 5897 5897 5897 5897 5897 5897 5897 5898 5898 5899 5899 5900 5901 5902
5938 5938 5937 5936 5935 5935 5934 5933 5932 5931 5929 5928 5927 5925 5924 5923 5922 5922 5921 5920 5918 5916 5916 5915 5915 5914 5914 5913 5913 5913 5912 5912 5912 5912 5911 5911 5912 5912 5910 5909 5908 5908 5908 5908 5908 5908 5908 5908 5907 5907 5907 5906 5906 5905 5903 5903 5903 5902 5902 5901 5901 5900 5899 5898 5898 5897 5897 5896 5896 5895 5895 5895 5895 5895 5896 5896 5896 5896 5896 5896 5896 5897 5898 5899 5899
5937 5936 5936 5935 5934 5933 5932 5931 5930 5929 5927 5926 5925 5924 5923 5921 5920 5919 5918 5917 5916 5914 5913 5913 5912 5912 5911 5911 5910 5910 5910 5909 5909 5909 5909 5909 5909 5909 5909 5908 5906 5905 5905 5904 5904 5905 5905 5905 5905 5905 5904 5904 5904 5903 5901 5900 5900 5900 5900 5899 5899 5898 5897 5896 5896 5895 5894 5894 5894 5893 5893 5893 5893 5893 5893 5894 5894 5894 5894 5894 5894 5895 5895 5896 5897
5936 5935 5935 5934 5933 5931 5930 5929 5927 5926 5925 5924 5923 5922 5920 5919 5918 5916 5915 5914 5914 5912 5911 5910 5910 5909 5909 5908 5908 5907 5907 5907 5907 5907 5907 5906 5906 5907 5907 5907 5906 5905 5903 5901 5900 5900 5900 5901 5901 5901 5901 5901 5901 5901 5900 5899 5898 5898 5897 5897 5896 5896 5895 5894 5894 5893 5892 5892 5891 5891 5891 5891 5891 5891 5891 5891 5891 5891 5892 5892 5892 5893 5893 5894 5894
5934 5934 5933 5932 5930 5929 5927 5926 5925 5924 5923 5922 5920 5919 5918 5916 5915 5913 5912 5912 5911 5910 5909 5908 5907 5907 5906 5906 5905 5905 5904 5904 5904 5904 5903 5904 5904 5904 5904 5904 5904 5904 5903 5902 5900 5898 5897 5897 5897 5897 5897 5897 5897 5898 5897 5896 5895 5895 5895 5895 5894 5893 5892 5892 5891 5891 5890 5890 5889 5889 5889 5888 5888 5888 5888 5888 5889 5889 5889 5889 5890 5890 5891 5891 5892
5932 5931 5931 5929 5927 5926 5926 5925 5924 5923 5921 5920 5918 5916 5914 5913 5912 5911 5910 5910 5909 5909 5907 5905 5904 5904 5903 5903 5903 5902 5902 5902 5901 5901 5900 5900 5900 5900 5900 5901 5901 5901 5900 5900 5899 5897 5896 5895 5894 5894 5893 5893 5893 5893 5894 5894 5893 5892 5892 5892 5891 5890 5890 5889 5889 5888 5888 5887 5887 5886 5886 5886 5886 5886 5886 5886 5886 5886 5886 5887 5887 5887 5888 5888 5888
5930 5929 5928 5926 5926 5925 5924 5923 5923 5921 5919 5918 5915 5912 5911 5910 5910 5909 5909 5908 5907 5906 5905 5903 5902 5901 5900 5900 5900 5899 5899 5899 5899 5898 5898 5897 5897 5897 5896 5896 5896 5897 5896 5896 5895 5895 5894 5893 5893 5892 5891 5890 5889 5889 5889 5890 5890 5889 5888 5888 5888 5888 5887 5887 5886 5885 5885 5884 5884 5884 5883 5883 5883 5883 5883 5883 5883 5883 5884 5884 5884 5884 5885 5885 5885
5927 5926 5925 5925 5925 5924 5923 5922 5921 5919 5917 5915 5912 5909 5907 5908 5909 5909 5908 5906 5905 5903 5902 5901 5900 5899 5898 5897 5897 5896 5896 5896 5896 5896 5895 5895 5894 5893 5893 5892 5892 5892 5892 5892 5892 5891 5891 5891 5891 5890 5889 5888 5887 5886 5886 5886 5886 5886 5885 5884 5884 5884 5884 5883 5883 5882 5881 5881 5880 5880 5880 5880 5880 5880 5880 5880 5880 5880 5881 5881 5882 5882 5882 5882 5882
5924 5923 5923 5924 5924 5923 5922 5920 5918 5916 5914 5912 5909 5907 5906 5907 5908 5907 5905 5904 5902 5900 5899 5898 5897 5896 5896 5895 5895 5894 5893 5893 5893 5893 5893 5892 5891 5890 5889 5889 5888 5888 5888 5888 5887 5887 5887 5887 5887 5886 5886 5886 5885 5884 5884 5883 5883 5882 5882 5882 5881 5881 5880 5879 5879 5878 5878 5877 5877 5877 5877 5876 5876 5876 5876 5876 5877 5877 5877 5878 5878 5878 5878 5878 5878
5922 5922 5922 5922 5922 5921 5920 5918 5916 5914 5912 5910 5908 5906 5906 5906 5906 5905 5903 5901 5900 5898 5896 5895 5895 5894 5893 5893 5893 5892 5891 5890 5890 5890 5890 5889 5889 5888 5887 5886 5885 5884 5884 5884 5883 5883 5883 5883 5883 5882 5882 5883 5882 5882 5881 5881 5881 5880 5879 5878 5878 5878 5877 5876 5876 5875 5874 5873 5873 5873 5873 5873 5873 5873 5873 5873 5873 5873 5873 5873 5874 5874 5874 5874 5874
5920 5920 5921 5921 5920 5919 5918 5916 5914 5912 5910 5908 5907 5906 5906 5905 5904 5903 5901 5899 5898 5897 5895 5895 5894 5892 5892 5891 5890 5890 5889 5888 5887 5887 5886 5886 5885 5885 5884 5883 5882 5881 5880 5879 5879 5879 5879 5879 5879 5878 5878 5879 5879 5878 5878 5878 5877 5877 5876 5875 5874 5874 5873 5873 5873 5872 5871 5870 5869 5869 5869 5869 5869 5869 5869 5869 5869 5869 5869 5869 5870 5870 5870 5870 5869
5919 5919 5919 5919 5918 5917 5915 5913 5911 5910 5908 5907 5906 5905 5905 5904 5903 5901 5899 5898 5897 5896 5895 5894 5893 5892 5890 5889 5888 5887 5886 5886 5885 5884 5884 5883 5882 5882 5881 5879 5878 5877 5876 5875 5875 5874 5874 5874 5874 5874 5874 5874 5874 5874 5873 5873 5873 5873 5873 5872 5871 5870 5869 5869 5869 5868 5867 5866 5865 5865 5865 5864 5864 5864 5864 5864 5865 5865 5865 5865 5865 5866 5866 5865 5865
5918 5918 5918 5918 5917 5915 5913 5911 5909 5908 5907 5906 5904 5904 5903 5902 5901 5899 5898 5897 5895 5894 5893 5892 5891 5890 5889 5888 5886 5885 5884 5883 5882 5881 5881 5880 5880 5879 5877 5876 5875 5873 5872 5871 5870 5870 5869 5869 5870 5870 5870 5870 5870 5869 5868 5868 5868 5868 5868 5868 5868 5867 5866 5865 5865 5864 5863 5862 5861 5861 5860 5860 5860 5859 5859 5859 5860 5860 5861 5861 5861 5861 5861 5861 5860
5917 5916 5916 5916 5915 5913 5912 5910 5908 5907 5906 5905 5904 5903 5902 5900 5899 5897 5896 5895 5893 5892 5891 5890 5889 5888 5887 5886 5884 5883 5881 5880 5879 5878 5877 5876 5875 5874 5873 5871 5870 5869 5867 5866 5865 5865 5865 5865 5865 5865 5865 5865 5864 5864 5864 5863 5863 5863 5863 5863 5863 5862 5862 5861 5861 5860 5859 5858 5857 5856 5856 5855 5855 5854 5854 5854 5855 5855 5855 5856 5856 5856 5856 5856 5855
5915 5915 5915 5914 5913 5912 5910 5908 5907 5906 5905 5905 5904 5902 5901 5899 5897 5896 5894 5892 5891 5890 5888 5887 5886 5885 5883 5882 5881 5880 5878 5877 5875 5874 5873 5872 5870 5869 5868 5866 5865 5864 5863 5862 5861 5861 5861 5861 5860 5860 5860 5860 5859 5859 5859 5858 5858 5858 5857 5857 5857 5857 5856 5856 5855 5855 5854 5854 5853 5852 5851 5850 5850 5849 5849 5849 5849 5849 5850 5850 5850 5850 5850 5850 5849
5913 5913 5913 5913 5912 5910 5909 5907 5906 5905 5905 5904 5903 5902 5900 5898 5896 5894 5893 5891 5889 5887 5886 5885 5883 5882 5880 5878 5877 5877 5875 5874 5872 5871 5869 5868 5866 5864 5863 5861 5860 5859 5859 5858 5857 5857 5857 5856 5856 5855 5855 5854 5854 5854 5854 5853 5853 5853 5853 5852 5852 5852 5851 5850 5850 5849 5849 5848 5847 5846 5846 5845 5845 5844 5844 5843 5843 5843 5843 5843 5843 5843 5843 5843 5843
5910 5910 5910 5910 5909 5908 5907 5906 5905 5904 5903 5902 5901 5900 5899 5897 5895 5893 5892 5890 5888 5886 5884 5882 5881 5879 5877 5875 5873 5872 5871 5870 5868 5867 5865 5864 5862 5860 5859 5857 5855 5854 5854 5854 5854 5853 5852 5851 5851 5850 5850 5849 5848 5847 5847 5848 5848 5848 5849 5848 5847 5847 5846 5845 5845 5844 5843 5842 5842 5841 5840 5840 5839 5839 5838 5838 5837 5837 5836 5836 5836 5836 5836 5836 5836
5908 5908 5907 5907 5907 5906 5905 5905 5904 5903 5902 5901 5900 5898 5897 5895 5894 5892 5890 5888 5886 5884 5882 5880 5878 5877 5875 5873 5872 5870 5869 5867 5866 5864 5862 5860 5859 5857 5855 5853 5852 5851 5850 5850 5850 5849 5847 5846 5845 5845 5845 5844 5844 5843 5843 5843 5843 5843 5843 5843 5842 5842 5841 5841 5840 5839 5838 5837 5836 5836 5835 5834 5833 5832 5832 5831 5830 5830 5830 5829 5829 5828 5828 5828 5828
5906 5906 5905 5905 5904 5904 5903 5903 5902 5902 5901 5900 5898 5896 5895 5893 5891 5890 5888 5886 5884 5881 5879 5877 5876 5874 5872 5871 5869 5868 5866 5865 5863 5861 5859 5857 5856 5854 5852 5850 5849 5847 5846 5845 5844 5844 5843 5842 5841 5840 5840 5840 5840 5839 5839 5838 5838 5838 5837 5837 5836 5836 5836 5836 5835 5835 5833 5832 5831 5830 5828 5828 5827 5826 5825 5824 5823 5823 5822 5822 5821 5821 5821 5821 5821
5904 5904 5904 5903 5902 5902 5902 5901 5901 5900 5899 5898 5896 5894 5892 5890 5888 5887 5885 5883 5881 5879 5877 5874 5872 5870 5868 5866 5865 5863 5862 5861 5859 5857 5856 5854 5852 5851 5849 5847 5845 5843 5842 5841 5840 5839 5840 5839 5837 5836 5836 5835 5835 5835 5834 5833 5833 5832 5832 5831 5830 5829 5828 5828 5828 5828 5827 5826 5825 5824 5822 5821 5820 5819 5818 5817 5817 5816 5815 5814 5814 5813 5812 5812 5813
5902 5902 5902 5901 5901 5901 5900 5900 5899 5898 5897 5895 5893 5891 5889 5887 5885 5883 5882 5880 5877 5875 5873 5871 5869 5866 5864 5862 5860 5859 5858 5858 5856 5854 5852 5851 5849 5847 5846 5843 5841 5839 5838 5837 5836 5835 5835 5835 5834 5832 5831 5830 5830 5830 5829 5827 5827 5827 5826 5825 5824 5822 5821 5820 5820 5819 5819 5818 5818 5817 5816 5815 5813 5812 5811 5810 5810 5809 5808 5807 5806 5805 5805 5805 5804
5900 5900 5900 5900 5899 5899 5898 5897 5896 5895 5893 5891 5889 5887 5886 5884 5882 5880 5878 5876 5874 5872 5870 5867 5865 5863 5861 5860 5858 5856 5855 5854 5853 5851 5849 5847 5846 5844 5842 5840 5838 5836 5834 5833 5832 5831 5830 5829 5829 5828 5827 5826 5826 5826 5824 5822 5821 5821 5820 5819 5818 5816 5815 5814 5813 5812 5811 5810 5809 5809 5808 5808 5807 5805 5804 5803 5802 5801 5800 5799 5798 5797 5797 5797 5796
5897 5898 5898 5898 5897 5896 5895 5894 5893 5891 5890 5888 5886 5884 5882 5880 5878 5876 5874 5872 5870 5868 5866 5864 5862 5860 5858 5857 5855 5853 5852 5851 5849 5847 5845 5843 5842 5840 5839 5836 5834 5833 5831 5830 5828 5827 5825 5824 5824 5823 5822 5821 5821 5820 5819 5817 5816 5816 5815 5814 5813 5811 5809 5808 5807 5806 5804 5803 5802 5801 5800 5800 5799 5798 5797 5796 5795 5794 5792 5791 5790 5789 5788 5788 5788
5894 5894 5894 5894 5893 5892 5891 5890 5889 5888 5886 5885 5883 5881 5879 5876 5874 5872 5870 5868 5866 5864 5862 5861 5859 5856 5854 5853 5851 5850 5849 5848 5846 5843 5841 5839 5838 5837 5835 5834 5832 5830 5828 5827 5825 5824 5822 5821 5820 5819 5818 5817 5816 5815 5814 5813 5812 5811 5809 5807 5807 5806 5804 5803 5802 5800 5798 5797 5796 5795 5794 5793 5792 5791 5790 5789 5787 5785 5784 5783 5782 5782 5780 5780 5779
5891 5891 5890 5890 5889 5888 5887 5886 5885 5884 5883 5882 5880 5878 5875 5872 5870 5868 5866 5864 5862 5860 5858 5857 5855 5853 5850 5849 5847 5846 5845 5844 5842 5840 5838 5836 5834 5833 5832 5830 5828 5826 5824 5822 5821 5820 5818 5817 5816 5815 5814 5813 5812 5810 5808 5807 5806 5805 5803 5802 5801 5800 5799 5798 5797 5794 5792 5791 5791 5790 5789 5787 5786 5784 5782 5781 5779 5777 5776 5774 5773 5773 5772 5771 5771
5887 5887 5887 5886 5885 5884 5883 5883 5882 5881 5880 5878 5876 5874 5871 5868 5866 5864 5862 5860 5858 5856 5854 5853 5851 5849 5846 5845 5843 5842 5841 5840 5838 5836 5834 5833 5831 5830 5828 5827 5825 5823 5821 5819 5817 5815 5814 5812 5811 5810 5809 5808 5806 5804 5803 5802 5800 5799 5797 5795 5794 5793 5792 5791 5791 5788 5786 5785 5785 5785 5783 5780 5778 5777 5775 5773 5772 5770 5768 5766 5764 5764 5763 5762 5761
5884 5884 5884 5883 5882 5881 5880 5879 5879 5878 5877 5875 5873 5870 5867 5864 5861 5859 5857 5855 5854 5852 5850 5848 5847 5844 5842 5840 5839 5838 5838 5836 5835 5833 5831 5829 5828 5826 5825 5823 5821 5819 5817 5815 5813 5812 5810 5808 5807 5805 5804 5802 5800 5798 5797 5795 5793 5792 5789 5787 5786 5785 5784 5783 5783 5781 5779 5777 5777 5777 5776 5772 5769 5769 5768 5765 5763 5762 5760 5758 5756 5755 5754 5753 5752
5880 5880 5880 5879 5879 5878 5877 5876 5875 5874 5872 5870 5868 5866 5863 5860 5858 5855 5853 5851 5849 5847 5846 5844 5842 5840 5838 5836 5835 5835 5834 5833 5831 5830 5828 5826 5824 5823 5821 5819 5817 5814 5812 5811 5809 5807 5806 5804 5802 5800 5797 5795 5793 5791 5789 5787 5785 5784 5782 5780 5778 5777 5776 5775 5775 5773 5771 5769 5769 5769 5768 5764 5760 5760 5759 5756 5755 5753 5751 5749 5747 5746 5745 5744 5743
5876 5876 5876 5876 5875 5874 5873 5872 5870 5869 5868 5866 5865 5861 5857 5855 5855 5853 5850 5847 5845 5843 5841 5840 5838 5836 5834 5833 5832 5832 5830 5829 5827 5826 5824 5823 5821 5819 5817 5815 5812 5810 5808 5806 5804 5803 5800 5798 5796 5793 5790 5787 5786 5784 5781 5779 5778 5777 5775 5774 5772 5770 5769 5767 5766 5765 5763 5761 5760 5760 5760 5755 5751 5751 5750 5747 5746 5745 5742 5740 5738 5737 5736 5735 5734
5872 5872 5873 5872 5872 5871 5870 5868 5867 5866 5864 5863 5862 5859 5853 5850 5851 5850 5847 5844 5841 5839 5838 5836 5835 5833 5831 5830 5829 5828 5827 5825 5823 5822 5820 5819 5817 5815 5813 5810 5808 5806 5803 5801 5799 5797 5795 5792 5790 5787 5784 5781 5779 5777 5775 5772 5771 5770 5768 5767 5765 5764 5762 5760 5759 5757 5755 5753 5751 5752 5751 5747 5743 5743 5742 5739 5738 5737 5734 5731 5729 5728 5727 5727 5726
5868 5868 5868 5868 5868 5867 5866 5865 5863 5862 5861 5860 5859 5856 5851 5848 5847 5845 5843 5840 5838 5836 5835 5833 5832 5830 5828 5827 5825 5824 5822 5821 5819 5818 5817 5815 5812 5810 5807 5805 5802 5800 5797 5795 5793 5791 5788 5786 5784 5781 5778 5776 5773 5771 5769 5767 5765 5763 5761 5760 5759 5757 5755 5753 5752 5749 5747 5745 5743 5743 5743 5740 5735 5735 5734 5731 5730 5729 5726 5723 5721 5720 5719 5719 5719
5864 5864 5864 5864 5864 5863 5862 5861 5859 5858 5857 5856 5854 5852 5849 5846 5843 5840 5839 5837 5835 5834 5832 5831 5829 5827 5825 5823 5822 5820 5818 5817 5815 5814 5812 5810 5807 5805 5802 5800 5797 5794 5791 5789 5786 5784 5782 5779 5777 5775 5772 5770 5768 5765 5763 5761 5759 5756 5754 5753 5751 5749 5747 5746 5745 5742 5739 5737 5735 5735 5735 5733 5729 5728 5727 5725 5724 5722 5719 5716 5714 5713 5712 5712 5711
5859 5859 5859 5859 5859 5859 5858 5856 5855 5853 5851 5850 5849 5847 5845 5843 5839 5837 5835 5833 5831 5830 5829 5827 5826 5824 5822 5820 5818 5816 5814 5812 5811 5809 5807 5805 5802 5800 5797 5794 5792 5789 5786 5783 5780 5778 5775 5772 5770 5768 5766 5763 5761 5759 5757 5754 5752 5750 5748 5746 5744 5742 5741 5739 5737 5735 5733 5730 5728 5727 5727 5726 5723 5721 5720 5719 5717 5716 5713 5710 5708 5707 5706 5705 5704
5855 5855 5855 5855 5855 5854 5853 5852 5851 5849 5846 5845 5844 5842 5840 5838 5835 5833 5831 5829 5828 5826 5825 5823 5822 5820 5818 5816 5814 5812 5809 5808 5806 5804 5801 5799 5796 5794 5791 5789 5786 5784 5781 5778 5775 5772 5769 5766 5764 5761 5759 5756 5754 5753 5750 5748 5745 5743 5742 5740 5738 5735 5734 5732 5730 5729 5726 5723 5720 5720 5720 5718 5716 5714 5713 5713 5712 5709 5706 5704 5703 5701 5699 5698 5698
5850 5851 5851 5851 5850 5850 5849 5848 5847 5844 5842 5840 5839 5838 5835 5833 5831 5829 5827 5825 5824 5822 5820 5819 5817 5815 5814 5812 5810 5807 5805 5803 5801 5798 5795 5793 5791 5788 5785 5783 5780 5778 5775 5772 5769 5766 5763 5760 5758 5755 5752 5750 5748 5746 5744 5741 5739 5736 5734 5733 5731 5729 5727 5725 5723 5722 5720 5716 5713 5713 5713 5712 5710 5707 5705 5705 5706 5704 5700 5698 5697 5695 5693 5692 5691